| time (UTC) | temp C | wind direction | speed KPH | gust KPH | rain 1hr cm | rain 24hr cm | rain mn cm | humidity % | barometer mb |
| 20260906191544 | 27 | 146 | 6.4 | 14.5 | 0.00 | 0.00 | 0.00 | 76 | 1015.8 |
| 20260906191040 | 26 | 165 | 4.8 | 14.5 | 0.00 | 0.00 | 0.00 | 76 | 1015.9 |
| 20260906190812 | 26 | 181 | 3.2 | 14.5 | 0.00 | 0.00 | 0.00 | 75 | 1015.9 |
| 20260906190037 | 26 | 148 | 3.2 | 14.5 | 0.00 | 0.00 | 0.00 | 75 | 1015.9 |
| 20260906185538 | 26 | 162 | 3.2 | 9.7 | 0.00 | 0.00 | 0.00 | 75 | 1015.9 |
| 20260906185035 | 26 | 39 | 4.8 | 14.5 | 0.00 | 0.00 | 0.00 | 75 | 1015.8 |
| 20260906184531 | 27 | 136 | 6.4 | 14.5 | 0.00 | 0.00 | 0.00 | 77 | 1015.8 |
| 20260906184024 | 26 | 120 | 4.8 | 16.1 | 0.00 | 0.00 | 0.00 | 76 | 1015.8 |
| 20260906183524 | 27 | 169 | 4.8 | 16.1 | 0.00 | 0.00 | 0.00 | 75 | 1015.8 |
| 20260906183023 | 27 | 171 | 6.4 | 12.9 | 0.00 | 0.00 | 0.00 | 76 | 1016.0 |
| 20260906182512 | 26 | 150 | 4.8 | 19.3 | 0.00 | 0.00 | 0.00 | 77 | 1016.1 |
| 20260906182011 | 26 | 186 | 6.4 | 20.9 | 0.00 | 0.00 | 0.00 | 76 | 1016.1 |
| 20260906181727 | 26 | 150 | 6.4 | 20.9 | 0.00 | 0.00 | 0.00 | 76 | 1016.1 |
| 20260906181008 | 26 | 101 | 4.8 | 17.7 | 0.00 | 0.00 | 0.00 | 76 | 1016.1 |
| 20260906180506 | 26 | 153 | 3.2 | 14.5 | 0.00 | 0.00 | 0.00 | 75 | 1016.0 |
| 20260906180003 | 27 | 160 | 3.2 | 14.5 | 0.00 | 0.00 | 0.00 | 75 | 1016.0 |
| 20260906175505 | 27 | 132 | 3.2 | 14.5 | 0.00 | 0.00 | 0.00 | 75 | 1016.0 |
| 20260906175000 | 27 | 180 | 3.2 | 14.5 | 0.00 | 0.00 | 0.00 | 74 | 1016.0 |
| 20260906174500 | 27 | 155 | 3.2 | 16.1 | 0.00 | 0.00 | 0.00 | 76 | 1015.9 |
| 20260906173953 | 27 | 182 | 4.8 | 16.1 | 0.00 | 0.00 | 0.00 | 74 | 1016.0 |
| 20260906173453 | 27 | 184 | 6.4 | 12.9 | 0.00 | 0.00 | 0.00 | 77 | 1016.1 |
| 20260906172951 | 26 | 149 | 6.4 | 20.9 | 0.00 | 0.00 | 0.00 | 79 | 1016.1 |
| 20260906172437 | 26 | 96 | 6.4 | 20.9 | 0.00 | 0.00 | 0.00 | 77 | 1016.2 |
| 20260906171928 | 26 | 152 | 6.4 | 25.7 | 0.00 | 0.00 | 0.00 | 78 | 1016.2 |
| 20260906171430 | 26 | 173 | 6.4 | 25.7 | 0.00 | 0.00 | 0.00 | 79 | 1016.3 |
| 20260906170933 | 26 | 156 | 4.8 | 12.9 | 0.00 | 0.00 | 0.00 | 79 | 1016.3 |
| 20260906170414 | 26 | 172 | 4.8 | 16.1 | 0.00 | 0.00 | 0.00 | 80 | 1016.5 |
| 20260906165911 | 25 | 177 | 4.8 | 24.1 | 0.00 | 0.00 | 0.00 | 81 | 1016.5 |
| 20260906165631 | 25 | 182 | 3.2 | 24.1 | 0.00 | 0.00 | 0.00 | 80 | 1016.5 |
| 20260906164913 | 25 | 124 | 1.6 | 24.1 | 0.00 | 0.00 | 0.00 | 80 | 1016.6 |
| 20260906164412 | 25 | 146 | 4.8 | 24.1 | 0.00 | 0.00 | 0.00 | 82 | 1016.5 |
| 20260906164131 | 25 | 155 | 6.4 | 24.1 | 0.00 | 0.00 | 0.00 | 82 | 1016.6 |
| 20260906163411 | 25 | 153 | 3.2 | 14.5 | 0.00 | 0.00 | 0.00 | 83 | 1016.7 |
| 20260906162908 | 24 | 159 | 3.2 | 11.3 | 0.00 | 0.00 | 0.00 | 83 | 1016.6 |
| 20260906162407 | 24 | 142 | 3.2 | 11.3 | 0.00 | 0.00 | 0.00 | 84 | 1016.7 |
| 20260906161902 | 24 | 148 | 1.6 | 11.3 | 0.00 | 0.00 | 0.00 | 84 | 1016.7 |
| 20260906161400 | 24 | 157 | 1.6 | 9.7 | 0.00 | 0.00 | 0.00 | 84 | 1016.6 |
| 20260906161121 | 24 | 147 | 1.6 | 9.7 | 0.00 | 0.00 | 0.00 | 84 | 1016.7 |
| 20260906160347 | 24 | 148 | 1.6 | 8.0 | 0.00 | 0.00 | 0.00 | 84 | 1017.0 |
| 20260906155843 | 24 | 136 | 1.6 | 8.0 | 0.00 | 0.00 | 0.00 | 85 | 1017.0 |
| 20260906155326 | 23 | 150 | 3.2 | 19.3 | 0.00 | 0.00 | 0.00 | 84 | 1017.0 |
| 20260906154823 | 23 | 148 | 4.8 | 19.3 | 0.00 | 0.00 | 0.00 | 85 | 1017.0 |
| 20260906154321 | 23 | 157 | 3.2 | 17.7 | 0.00 | 0.00 | 0.00 | 85 | 1016.8 |
| 20260906153821 | 23 | 174 | 3.2 | 9.7 | 0.00 | 0.00 | 0.00 | 85 | 1016.8 |
| 20260906153319 | 23 | 144 | 1.6 | 9.7 | 0.00 | 0.00 | 0.00 | 86 | 1016.9 |
| 20260906152811 | 23 | 148 | 1.6 | 9.7 | 0.00 | 0.00 | 0.00 | 86 | 1017.0 |
| 20260906152300 | 23 | 157 | 1.6 | 3.2 | 0.00 | 0.00 | 0.00 | 86 | 1017.0 |
| 20260906152241 | 23 | 156 | 1.6 | 9.7 | 0.00 | 0.00 | 0.00 | 86 | 1017.1 |
| 20260906151256 | 23 | 156 | 3.2 | 9.7 | 0.00 | 0.00 | 0.00 | 86 | 1017.0 |
| 20260906150753 | 23 | 157 | 1.6 | 8.0 | 0.00 | 0.00 | 0.00 | 86 | 1017.0 |
| 20260906150245 | 23 | 119 | 1.6 | 6.4 | 0.00 | 0.00 | 0.00 | 86 | 1016.9 |
| 20260906145742 | 23 | 177 | 1.6 | 11.3 | 0.00 | 0.00 | 0.00 | 86 | 1016.8 |
| 20260906145243 | 23 | 152 | 3.2 | 14.5 | 0.00 | 0.00 | 0.00 | 87 | 1016.7 |
| 20260906144738 | 23 | 171 | 3.2 | 14.5 | 0.00 | 0.00 | 0.00 | 88 | 1016.7 |
| 20260906144238 | 23 | 142 | 1.6 | 11.3 | 0.00 | 0.00 | 0.00 | 89 | 1016.7 |
| 20260906143728 | 22 | 154 | 1.6 | 9.7 | 0.00 | 0.00 | 0.00 | 90 | 1016.7 |
| 20260906143230 | 22 | 166 | 1.6 | 9.7 | 0.00 | 0.00 | 0.00 | 91 | 1016.7 |
| 20260906142726 | 22 | 171 | 1.6 | 9.7 | 0.00 | 0.00 | 0.00 | 92 | 1016.8 |
| 20260906142228 | 22 | 157 | 3.2 | 11.3 | 0.00 | 0.00 | 0.00 | 93 | 1016.9 |
| 20260906141727 | 22 | 163 | 3.2 | 11.3 | 0.00 | 0.00 | 0.00 | 94 | 1016.8 |
| 20260906141222 | 21 | 159 | 3.2 | 9.7 | 0.00 | 0.00 | 0.00 | 95 | 1016.8 |
| 20260906140722 | 21 | 146 | 1.6 | 6.4 | 0.00 | 0.00 | 0.00 | 95 | 1016.8 |
| 20260906140222 | 21 | 184 | 1.6 | 6.4 | 0.00 | 0.00 | 0.00 | 95 | 1016.8 |
| 20260906135933 | 21 | 147 | 1.6 | 9.7 | 0.00 | 0.00 | 0.00 | 96 | 1016.9 |
| 20260906135213 | 21 | 140 | 1.6 | 9.7 | 0.00 | 0.00 | 0.00 | 96 | 1016.8 |
| 20260906134708 | 21 | 92 | 0.0 | 3.2 | 0.00 | 0.00 | 0.00 | 96 | 1016.8 |
| 20260906134150 | 20 | 92 | 0.0 | 3.2 | 0.00 | 0.00 | 0.00 | 96 | 1016.8 |
| 20260906133646 | 20 | 42 | 0.0 | 3.2 | 0.00 | 0.00 | 0.00 | 96 | 1016.6 |
| 20260906133147 | 20 | 5 | 0.0 | 3.2 | 0.00 | 0.00 | 0.00 | 96 | 1016.6 |
| 20260906132636 | 20 | 5 | 0.0 | 3.2 | 0.00 | 0.00 | 0.00 | 96 | 1016.6 |
| 20260906132356 | 20 | 5 | 0.0 | 1.6 | 0.00 | 0.00 | 0.00 | 96 | 1016.6 |
| 20260906131631 | 20 | 5 | 0.0 | 1.6 | 0.00 | 0.00 | 0.00 | 96 | 1016.6 |
| 20260906131345 | 20 | 5 | 0.0 | 1.6 | 0.00 | 0.00 | 0.00 | 96 | 1016.5 |
| 20260906130814 | 20 | 5 | 0.0 | 1.6 | 0.00 | 0.00 | 0.00 | 96 | 1016.5 |
| 20260906130049 | 19 | 5 | 0.0 | 1.6 | 0.00 | 0.00 | 0.00 | 96 | 1016.6 |
| 20260906125543 | 19 | 5 | 0.0 | 1.6 | 0.00 | 0.00 | 0.00 | 96 | 1016.6 |
| 20260906125026 | 19 | 5 | 0.0 | 1.6 | 0.00 | 0.00 | 0.00 | 96 | 1016.6 |
| 20260906124525 | 18 | 5 | 0.0 | 1.6 | 0.00 | 0.00 | 0.00 | 95 | 1016.5 |
| 20260906124009 | 18 | 5 | 0.0 | 0.0 | 0.00 | 0.00 | 0.00 | 95 | 1016.5 |
| 20260906123719 | 18 | 5 | 0.0 | 0.0 | 0.00 | 0.00 | 0.00 | 95 | 1016.6 |
| 20260906122951 | 18 | 5 | 0.0 | 0.0 | 0.00 | 0.00 | 0.00 | 95 | 1016.6 |
| 20260906122448 | 18 | 5 | 0.0 | 0.0 | 0.00 | 0.00 | 0.00 | 95 | 1016.6 |
| 20260906121943 | 18 | 5 | 0.0 | 0.0 | 0.00 | 0.00 | 0.00 | 95 | 1016.5 |
| 20260906121659 | 18 | 5 | 0.0 | 0.0 | 0.00 | 0.00 | 0.00 | 95 | 1016.4 |
| 20260906120912 | 18 | 5 | 0.0 | 0.0 | 0.00 | 0.00 | 0.00 | 95 | 1016.4 |
| 20260906120358 | 18 | 5 | 0.0 | 0.0 | 0.00 | 0.00 | 0.00 | 95 | 1016.3 |
| 20260906120116 | 18 | 5 | 0.0 | 0.0 | 0.00 | 0.00 | 0.00 | 95 | 1016.2 |
| 20260906115354 | 18 | 5 | 0.0 | 0.0 | 0.00 | 0.00 | 0.00 | 94 | 1016.2 |
| 20260906114836 | 18 | 5 | 0.0 | 0.0 | 0.00 | 0.00 | 0.00 | 94 | 1016.2 |
| 20260906114330 | 18 | 5 | 0.0 | 0.0 | 0.00 | 0.00 | 0.00 | 95 | 1016.2 |
| 20260906113821 | 18 | 5 | 0.0 | 0.0 | 0.00 | 0.00 | 0.00 | 95 | 1016.2 |
| 20260906113310 | 18 | 5 | 0.0 | 0.0 | 0.00 | 0.00 | 0.00 | 94 | 1016.1 |
| 20260906113037 | 18 | 5 | 0.0 | 0.0 | 0.00 | 0.00 | 0.00 | 94 | 1016.1 |
| 20260906112526 | 18 | 5 | 0.0 | 0.0 | 0.00 | 0.00 | 0.00 | 94 | 1016.1 |
| 20260906112019 | 18 | 5 | 0.0 | 0.0 | 0.00 | 0.00 | 0.00 | 94 | 1016.0 |
| 20260906111257 | 18 | 5 | 0.0 | 0.0 | 0.00 | 0.00 | 0.00 | 94 | 1016.0 |
| 20260906110732 | 18 | 5 | 0.0 | 0.0 | 0.00 | 0.00 | 0.00 | 94 | 1015.9 |
| 20260906110224 | 19 | 5 | 0.0 | 0.0 | 0.00 | 0.00 | 0.00 | 94 | 1015.8 |
| 20260906105710 | 19 | 5 | 0.0 | 0.0 | 0.00 | 0.00 | 0.00 | 94 | 1015.8 |
| 20260906105208 | 19 | 5 | 0.0 | 0.0 | 0.00 | 0.00 | 0.00 | 94 | 1015.8 |
| 20260906104935 | 19 | 5 | 0.0 | 0.0 | 0.00 | 0.00 | 0.00 | 94 | 1015.8 |
| 20260906104157 | 19 | 5 | 0.0 | 0.0 | 0.00 | 0.00 | 0.00 | 94 | 1015.8 |
| 20260906103634 | 19 | 5 | 0.0 | 0.0 | 0.00 | 0.00 | 0.00 | 94 | 1015.8 |
| 20260906103130 | 19 | 5 | 0.0 | 0.0 | 0.00 | 0.00 | 0.00 | 94 | 1015.8 |
| 20260906102558 | 19 | 5 | 0.0 | 0.0 | 0.00 | 0.00 | 0.00 | 94 | 1015.8 |
| 20260906102043 | 19 | 5 | 0.0 | 0.0 | 0.00 | 0.00 | 0.00 | 94 | 1015.8 |
| 20260906101545 | 19 | 5 | 0.0 | 0.0 | 0.00 | 0.00 | 0.00 | 94 | 1015.7 |
| 20260906101043 | 19 | 5 | 0.0 | 0.0 | 0.00 | 0.00 | 0.00 | 94 | 1015.6 |
| 20260906100531 | 19 | 5 | 0.0 | 0.0 | 0.00 | 0.00 | 0.00 | 94 | 1015.7 |
| 20260906100252 | 19 | 5 | 0.0 | 0.0 | 0.00 | 0.00 | 0.00 | 94 | 1015.7 |
| 20260906095523 | 19 | 5 | 0.0 | 0.0 | 0.00 | 0.00 | 0.00 | 94 | 1015.6 |
| 20260906095230 | 19 | 5 | 0.0 | 0.0 | 0.00 | 0.00 | 0.00 | 94 | 1015.4 |
| 20260906094502 | 19 | 5 | 0.0 | 0.0 | 0.00 | 0.00 | 0.00 | 94 | 1015.3 |
| 20260906093957 | 19 | 5 | 0.0 | 0.0 | 0.00 | 0.00 | 0.00 | 94 | 1015.1 |
| 20260906093440 | 19 | 5 | 0.0 | 0.0 | 0.00 | 0.00 | 0.00 | 94 | 1015.0 |
| 20260906092938 | 19 | 5 | 0.0 | 0.0 | 0.00 | 0.00 | 0.00 | 94 | 1015.0 |
| 20260906092431 | 19 | 5 | 0.0 | 0.0 | 0.00 | 0.00 | 0.00 | 94 | 1015.0 |
| 20260906091915 | 20 | 5 | 0.0 | 0.0 | 0.00 | 0.00 | 0.00 | 94 | 1015.0 |
| 20260906091412 | 20 | 5 | 0.0 | 0.0 | 0.00 | 0.00 | 0.00 | 93 | 1014.9 |
| 20260906090858 | 20 | 5 | 0.0 | 0.0 | 0.00 | 0.00 | 0.00 | 93 | 1014.9 |
| 20260906090353 | 20 | 5 | 0.0 | 0.0 | 0.00 | 0.00 | 0.00 | 93 | 1014.9 |
| 20260906085813 | 20 | 5 | 0.0 | 0.0 | 0.00 | 0.00 | 0.00 | 93 | 1014.9 |
| 20260906085314 | 20 | 5 | 0.0 | 0.0 | 0.00 | 0.00 | 0.00 | 93 | 1015.0 |
| 20260906084812 | 20 | 5 | 0.0 | 0.0 | 0.00 | 0.00 | 0.00 | 93 | 1015.0 |
| 20260906084305 | 20 | 5 | 0.0 | 0.0 | 0.00 | 0.00 | 0.00 | 93 | 1014.8 |
| 20260906083804 | 20 | 5 | 0.0 | 1.6 | 0.00 | 0.00 | 0.00 | 93 | 1014.8 |
| 20260906083507 | 20 | 5 | 0.0 | 1.6 | 0.00 | 0.00 | 0.00 | 93 | 1014.8 |
| 20260906082734 | 20 | 5 | 0.0 | 0.0 | 0.00 | 0.00 | 0.00 | 93 | 1014.9 |
| 20260906082227 | 20 | 5 | 0.0 | 0.0 | 0.00 | 0.00 | 0.00 | 93 | 1014.9 |
| 20260906081716 | 20 | 5 | 0.0 | 1.6 | 0.00 | 0.00 | 0.00 | 92 | 1015.0 |
| 20260906081200 | 20 | 5 | 0.0 | 0.0 | 0.00 | 0.00 | 0.00 | 92 | 1015.0 |
| 20260906080644 | 20 | 5 | 0.0 | 0.0 | 0.00 | 0.00 | 0.00 | 92 | 1014.9 |
| 20260906080402 | 20 | 5 | 0.0 | 0.0 | 0.00 | 0.00 | 0.00 | 92 | 1014.9 |
| 20260906075612 | 20 | 5 | 0.0 | 0.0 | 0.00 | 0.00 | 0.00 | 92 | 1014.9 |
| 20260906075103 | 20 | 5 | 0.0 | 0.0 | 0.00 | 0.00 | 0.00 | 92 | 1014.9 |
| 20260906074604 | 20 | 5 | 0.0 | 0.0 | 0.00 | 0.00 | 0.00 | 92 | 1015.0 |
| 20260906074042 | 20 | 5 | 0.0 | 0.0 | 0.00 | 0.00 | 0.00 | 92 | 1015.0 |
| 20260906073540 | 20 | 5 | 0.0 | 0.0 | 0.00 | 0.00 | 0.00 | 92 | 1014.9 |
| 20260906073032 | 20 | 5 | 0.0 | 1.6 | 0.00 | 0.00 | 0.00 | 91 | 1015.0 |
| 20260906072520 | 20 | 5 | 0.0 | 1.6 | 0.00 | 0.00 | 0.00 | 91 | 1015.0 |
| 20260906072234 | 20 | 5 | 0.0 | 0.0 | 0.00 | 0.00 | 0.00 | 91 | 1015.0 |
| 20260906071956 | 20 | 5 | 0.0 | 0.0 | 0.00 | 0.00 | 0.00 | 91 | 1015.3 |
| 20260906071010 | 20 | 5 | 0.0 | 0.0 | 0.00 | 0.00 | 0.00 | 91 | 1015.3 |
| 20260906070434 | 20 | 5 | 0.0 | 0.0 | 0.00 | 0.00 | 0.00 | 91 | 1015.3 |
| 20260906065912 | 20 | 5 | 0.0 | 0.0 | 0.00 | 0.00 | 0.00 | 91 | 1015.3 |
| 20260906065410 | 20 | 5 | 0.0 | 0.0 | 0.00 | 0.00 | 0.00 | 91 | 1015.4 |
| 20260906064854 | 20 | 5 | 0.0 | 0.0 | 0.00 | 0.00 | 0.00 | 91 | 1015.4 |
| 20260906064334 | 20 | 5 | 0.0 | 0.0 | 0.00 | 0.00 | 0.00 | 91 | 1015.6 |
| 20260906063824 | 20 | 5 | 0.0 | 1.6 | 0.00 | 0.00 | 0.00 | 91 | 1015.4 |
| 20260906063315 | 20 | 5 | 0.0 | 1.6 | 0.00 | 0.00 | 0.00 | 91 | 1015.5 |
| 20260906062754 | 20 | 5 | 0.0 | 0.0 | 0.00 | 0.00 | 0.00 | 90 | 1015.4 |
| 20260906062506 | 20 | 5 | 0.0 | 0.0 | 0.00 | 0.00 | 0.00 | 90 | 1015.4 |
| 20260906061738 | 21 | 5 | 0.0 | 0.0 | 0.00 | 0.00 | 0.00 | 90 | 1015.4 |
| 20260906061220 | 21 | 5 | 0.0 | 0.0 | 0.00 | 0.00 | 0.00 | 90 | 1015.3 |
| 20260906060716 | 21 | 5 | 0.0 | 0.0 | 0.00 | 0.00 | 0.00 | 90 | 1015.3 |
| 20260906060214 | 21 | 5 | 0.0 | 0.0 | 0.00 | 0.00 | 0.00 | 90 | 1015.4 |
| 20260906055655 | 21 | 5 | 0.0 | 0.0 | 0.00 | 0.00 | 0.00 | 89 | 1015.4 |
| 20260906055135 | 21 | 5 | 0.0 | 0.0 | 0.00 | 0.00 | 0.00 | 89 | 1015.3 |
| 20260906054631 | 21 | 5 | 0.0 | 0.0 | 0.00 | 0.00 | 0.00 | 89 | 1015.4 |
| 20260906054335 | 21 | 5 | 0.0 | 0.0 | 0.00 | 0.00 | 0.00 | 89 | 1015.4 |
| 20260906053604 | 21 | 5 | 0.0 | 1.6 | 0.00 | 0.00 | 0.00 | 89 | 1015.4 |
| 20260906053322 | 21 | 5 | 0.0 | 1.6 | 0.00 | 0.00 | 0.00 | 89 | 1015.4 |
| 20260906052811 | 21 | 5 | 0.0 | 1.6 | 0.00 | 0.00 | 0.00 | 89 | 1015.5 |
| 20260906052037 | 21 | 5 | 0.0 | 1.6 | 0.00 | 0.00 | 0.00 | 88 | 1015.4 |
| 20260906051534 | 21 | 5 | 0.0 | 1.6 | 0.00 | 0.00 | 0.00 | 88 | 1015.4 |
| 20260906051020 | 21 | 5 | 0.0 | 1.6 | 0.00 | 0.00 | 0.00 | 88 | 1015.4 |
| 20260906050735 | 21 | 5 | 0.0 | 0.0 | 0.00 | 0.00 | 0.00 | 88 | 1015.4 |
| 20260906050006 | 21 | 5 | 0.0 | 0.0 | 0.00 | 0.00 | 0.00 | 88 | 1015.3 |
| 20260906045505 | 21 | 5 | 0.0 | 0.0 | 0.00 | 0.00 | 0.00 | 88 | 1015.3 |
| 20260906045002 | 22 | 5 | 0.0 | 0.0 | 0.00 | 0.00 | 0.00 | 87 | 1015.4 |
| 20260906044711 | 22 | 5 | 0.0 | 0.0 | 0.00 | 0.00 | 0.00 | 87 | 1015.4 |
| 20260906043945 | 22 | 5 | 0.0 | 0.0 | 0.00 | 0.00 | 0.00 | 87 | 1015.4 |
| 20260906043652 | 22 | 5 | 0.0 | 1.6 | 0.00 | 0.00 | 0.00 | 87 | 1015.4 |
| 20260906042913 | 22 | 5 | 0.0 | 1.6 | 0.00 | 0.00 | 0.00 | 86 | 1015.5 |
| 20260906042413 | 22 | 5 | 0.0 | 0.0 | 0.00 | 0.00 | 0.00 | 86 | 1015.5 |
| 20260906041913 | 22 | 5 | 0.0 | 0.0 | 0.00 | 0.00 | 0.00 | 86 | 1015.6 |
| 20260906041631 | 22 | 5 | 0.0 | 1.6 | 0.00 | 0.00 | 0.00 | 86 | 1015.5 |
| 20260906040912 | 22 | 5 | 0.0 | 1.6 | 0.00 | 0.00 | 0.00 | 86 | 1015.6 |
| 20260906040404 | 22 | 5 | 0.0 | 1.6 | 0.00 | 0.00 | 0.00 | 86 | 1015.5 |
| 20260906035905 | 22 | 5 | 0.0 | 1.6 | 0.00 | 0.00 | 0.00 | 86 | 1015.4 |
| 20260906035353 | 22 | 5 | 0.0 | 1.6 | 0.00 | 0.00 | 0.00 | 86 | 1015.5 |
| 20260906034848 | 22 | 5 | 0.0 | 1.6 | 0.00 | 0.00 | 0.00 | 86 | 1015.5 |
| 20260906034338 | 22 | 5 | 0.0 | 1.6 | 0.00 | 0.00 | 0.00 | 86 | 1015.5 |
| 20260906033834 | 22 | 5 | 0.0 | 1.6 | 0.00 | 0.00 | 0.00 | 86 | 1015.5 |
| 20260906033312 | 22 | 5 | 0.0 | 1.6 | 0.00 | 0.00 | 0.00 | 85 | 1015.6 |
| 20260906032752 | 22 | 5 | 0.0 | 1.6 | 0.00 | 0.00 | 0.00 | 85 | 1015.7 |
| 20260906032249 | 22 | 342 | 0.0 | 0.0 | 0.00 | 0.00 | 0.00 | 85 | 1015.7 |
| 20260906031736 | 22 | 342 | 0.0 | 1.6 | 0.00 | 0.00 | 0.00 | 85 | 1015.6 |
| 20260906031212 | 23 | 342 | 0.0 | 1.6 | 0.00 | 0.00 | 0.00 | 84 | 1015.7 |
| 20260906030712 | 23 | 342 | 0.0 | 1.6 | 0.00 | 0.00 | 0.00 | 84 | 1015.8 |
| 20260906030150 | 23 | 342 | 0.0 | 1.6 | 0.00 | 0.00 | 0.00 | 84 | 1015.8 |
| 20260906025646 | 23 | 342 | 0.0 | 0.0 | 0.00 | 0.00 | 0.00 | 85 | 1015.6 |
| 20260906025414 | 23 | 342 | 0.0 | 0.0 | 0.00 | 0.00 | 0.00 | 85 | 1015.6 |
| 20260906024637 | 23 | 342 | 0.0 | 1.6 | 0.00 | 0.00 | 0.00 | 84 | 1015.7 |
| 20260906024118 | 23 | 342 | 0.0 | 1.6 | 0.00 | 0.00 | 0.00 | 85 | 1015.8 |
| 20260906023554 | 23 | 342 | 0.0 | 0.0 | 0.00 | 0.00 | 0.00 | 84 | 1015.7 |
| 20260906023318 | 23 | 342 | 0.0 | 0.0 | 0.00 | 0.00 | 0.00 | 84 | 1015.5 |
| 20260906022741 | 23 | 342 | 0.0 | 0.0 | 0.00 | 0.00 | 0.00 | 84 | 1015.4 |
| 20260906022015 | 23 | 342 | 0.0 | 0.0 | 0.00 | 0.00 | 0.00 | 84 | 1015.4 |
| 20260906021515 | 23 | 342 | 0.0 | 0.0 | 0.00 | 0.00 | 0.00 | 83 | 1015.3 |
| 20260906021016 | 23 | 342 | 0.0 | 0.0 | 0.00 | 0.00 | 0.00 | 83 | 1015.1 |
| 20260906020515 | 23 | 342 | 0.0 | 0.0 | 0.00 | 0.00 | 0.00 | 83 | 1014.9 |
| 20260906020014 | 23 | 342 | 0.0 | 0.0 | 0.00 | 0.00 | 0.00 | 83 | 1014.5 |
| 20260906015508 | 23 | 342 | 0.0 | 1.6 | 0.00 | 0.00 | 0.00 | 82 | 1014.5 |
| 20260906015002 | 23 | 342 | 0.0 | 1.6 | 0.00 | 0.00 | 0.00 | 82 | 1014.5 |
| 20260906014458 | 23 | 342 | 0.0 | 1.6 | 0.00 | 0.00 | 0.00 | 82 | 1014.2 |
| 20260906014200 | 24 | 342 | 0.0 | 1.6 | 0.00 | 0.00 | 0.00 | 82 | 1014.0 |
| 20260906013439 | 24 | 355 | 0.0 | 1.6 | 0.00 | 0.00 | 0.00 | 81 | 1013.9 |
| 20260906012937 | 24 | 355 | 0.0 | 1.6 | 0.00 | 0.00 | 0.00 | 81 | 1013.9 |
| 20260906012650 | 24 | 142 | 0.0 | 1.6 | 0.00 | 0.00 | 0.00 | 81 | 1013.9 |
| 20260906011927 | 25 | 146 | 0.0 | 1.6 | 0.00 | 0.00 | 0.00 | 81 | 1013.7 |
| 20260906011425 | 25 | 151 | 0.0 | 1.6 | 0.00 | 0.00 | 0.00 | 80 | 1013.6 |
| 20260906010927 | 25 | 168 | 0.0 | 0.0 | 0.00 | 0.00 | 0.00 | 80 | 1013.6 |
| 20260906010420 | 25 | 168 | 0.0 | 4.8 | 0.00 | 0.00 | 0.00 | 80 | 1013.5 |
| 20260906005914 | 25 | 168 | 0.0 | 4.8 | 0.00 | 0.00 | 0.00 | 79 | 1013.3 |
| 20260906005416 | 25 | 168 | 0.0 | 6.4 | 0.00 | 0.00 | 0.00 | 79 | 1013.2 |
| 20260906004908 | 26 | 168 | 0.0 | 6.4 | 0.00 | 0.00 | 0.00 | 78 | 1013.2 |
| 20260906004406 | 26 | 202 | 0.0 | 1.6 | 0.00 | 0.00 | 0.00 | 76 | 1013.1 |
| 20260906003902 | 26 | 202 | 0.0 | 3.2 | 0.00 | 0.00 | 0.00 | 76 | 1013.0 |
| 20260906003357 | 26 | 202 | 0.0 | 3.2 | 0.00 | 0.00 | 0.00 | 76 | 1013.0 |
| 20260906002827 | 26 | 202 | 0.0 | 4.8 | 0.00 | 0.00 | 0.00 | 75 | 1012.9 |
| 20260906002323 | 26 | 202 | 1.6 | 4.8 | 0.00 | 0.00 | 0.00 | 74 | 1012.8 |
| 20260906001814 | 26 | 212 | 0.0 | 4.8 | 0.00 | 0.00 | 0.00 | 74 | 1012.7 |
| 20260906001306 | 27 | 319 | 0.0 | 3.2 | 0.00 | 0.00 | 0.00 | 73 | 1012.5 |
| 20260906000803 | 27 | 340 | 1.6 | 1.6 | 0.00 | 0.00 | 0.00 | 72 | 1012.5 |
| 20260906000304 | 27 | 340 | 1.6 | 3.2 | 0.00 | 0.00 | 0.00 | 72 | 1012.7 |
| 20260905235801 | 27 | 340 | 1.6 | 3.2 | 0.00 | 0.00 | 0.00 | 71 | 1012.7 |
| 20260905235300 | 27 | 340 | 1.6 | 3.2 | 0.00 | 0.00 | 0.00 | 71 | 1012.9 |
| 20260905234753 | 27 | 348 | 1.6 | 3.2 | 0.00 | 0.00 | 0.00 | 71 | 1012.9 |
| 20260905234521 | 27 | 348 | 1.6 | 3.2 | 0.00 | 0.00 | 0.00 | 72 | 1013.0 |
| 20260905233753 | 27 | 5 | 1.6 | 4.8 | 0.00 | 0.00 | 0.00 | 71 | 1013.0 |
| 20260905233250 | 27 | 43 | 1.6 | 4.8 | 0.00 | 0.00 | 0.00 | 71 | 1012.8 |
| 20260905232753 | 28 | 355 | 1.6 | 9.7 | 0.00 | 0.00 | 0.00 | 72 | 1012.8 |
| 20260905232250 | 28 | 29 | 1.6 | 9.7 | 0.00 | 0.00 | 0.00 | 71 | 1012.9 |
| 20260905231746 | 28 | 9 | 1.6 | 11.3 | 0.00 | 0.00 | 0.00 | 72 | 1012.7 |
| 20260905231247 | 28 | 17 | 1.6 | 14.5 | 0.00 | 0.00 | 0.00 | 70 | 1012.8 |
| 20260905231007 | 28 | 20 | 1.6 | 14.5 | 0.00 | 0.00 | 0.00 | 72 | 1012.8 |
| 20260905230223 | 28 | 19 | 3.2 | 14.5 | 0.00 | 0.00 | 0.00 | 71 | 1012.8 |
| 20260905225719 | 28 | 41 | 3.2 | 14.5 | 0.00 | 0.00 | 0.00 | 72 | 1012.6 |
| 20260905225433 | 28 | 69 | 1.6 | 9.7 | 0.00 | 0.00 | 0.00 | 70 | 1012.4 |
| 20260905224711 | 28 | 259 | 3.2 | 16.1 | 0.00 | 0.00 | 0.00 | 71 | 1012.3 |
| 20260905224203 | 28 | 30 | 3.2 | 16.1 | 0.00 | 0.00 | 0.00 | 70 | 1012.4 |
| 20260905223706 | 29 | 55 | 3.2 | 16.1 | 0.00 | 0.00 | 0.00 | 69 | 1012.5 |
| 20260905223419 | 29 | 107 | 3.2 | 16.1 | 0.00 | 0.00 | 0.00 | 68 | 1012.6 |
| 20260905222649 | 30 | 98 | 3.2 | 16.1 | 0.00 | 0.00 | 0.00 | 68 | 1012.6 |
| 20260905222150 | 30 | 78 | 3.2 | 11.3 | 0.00 | 0.00 | 0.00 | 66 | 1012.7 |
| 20260905221642 | 30 | 43 | 1.6 | 11.3 | 0.00 | 0.00 | 0.00 | 66 | 1012.8 |
| 20260905221133 | 31 | 59 | 1.6 | 11.3 | 0.00 | 0.00 | 0.00 | 65 | 1012.9 |
| 20260905221121 | 31 | 126 | 3.2 | 16.1 | 0.00 | 0.00 | 0.00 | 65 | 1012.9 |
| 20260905220357 | 31 | 24 | 3.2 | 16.1 | 0.00 | 0.00 | 0.00 | 65 | 1012.8 |
| 20260905215610 | 31 | 49 | 1.6 | 8.0 | 0.00 | 0.00 | 0.00 | 65 | 1012.8 |
| 20260905215108 | 31 | 355 | 3.2 | 14.5 | 0.00 | 0.00 | 0.00 | 65 | 1012.9 |
| 20260905214609 | 31 | 69 | 3.2 | 14.5 | 0.00 | 0.00 | 0.00 | 65 | 1012.9 |
| 20260905214334 | 31 | 230 | 1.6 | 9.7 | 0.00 | 0.00 | 0.00 | 66 | 1012.8 |
| 20260905213833 | 31 | 136 | 1.6 | 9.7 | 0.00 | 0.00 | 0.00 | 64 | 1012.7 |
| 20260905213103 | 31 | 10 | 1.6 | 8.0 | 0.00 | 0.00 | 0.00 | 66 | 1012.8 |
| 20260905212824 | 30 | 46 | 3.2 | 8.0 | 0.00 | 0.00 | 0.00 | 67 | 1012.9 |
| 20260905212104 | 30 | 182 | 3.2 | 12.9 | 0.00 | 0.00 | 0.00 | 68 | 1013.1 |
| 20260905211601 | 30 | 53 | 3.2 | 12.9 | 0.00 | 0.00 | 0.00 | 68 | 1013.1 |
| 20260905211102 | 30 | 35 | 3.2 | 14.5 | 0.00 | 0.00 | 0.00 | 67 | 1013.3 |
| 20260905210602 | 30 | 38 | 3.2 | 14.5 | 0.00 | 0.00 | 0.00 | 69 | 1013.4 |
| 20260905210054 | 30 | 240 | 3.2 | 8.0 | 0.00 | 0.00 | 0.00 | 70 | 1013.5 |
| 20260905205550 | 30 | 67 | 3.2 | 14.5 | 0.00 | 0.00 | 0.00 | 68 | 1013.5 |
| 20260905205310 | 30 | 32 | 3.2 | 14.5 | 0.00 | 0.00 | 0.00 | 67 | 1013.8 |
| 20260905204545 | 30 | 311 | 3.2 | 9.7 | 0.00 | 0.00 | 0.00 | 71 | 1013.8 |
| 20260905204045 | 29 | 17 | 1.6 | 9.7 | 0.00 | 0.00 | 0.00 | 74 | 1013.8 |
| 20260905203542 | 29 | 238 | 1.6 | 4.8 | 0.00 | 0.00 | 0.00 | 72 | 1014.0 |
| 20260905203039 | 29 | 349 | 3.2 | 12.9 | 0.00 | 0.00 | 0.00 | 72 | 1014.0 |
| 20260905202533 | 29 | 348 | 3.2 | 12.9 | 0.00 | 0.00 | 0.00 | 72 | 1014.0 |
| 20260905202028 | 28 | 342 | 3.2 | 12.9 | 0.00 | 0.00 | 0.00 | 71 | 1014.1 |
| 20260905201531 | 28 | 17 | 1.6 | 8.0 | 0.00 | 0.00 | 0.00 | 74 | 1014.3 |
| 20260905201021 | 28 | 5 | 1.6 | 4.8 | 0.00 | 0.00 | 0.00 | 71 | 1014.4 |
| 20260905200511 | 28 | 5 | 1.6 | 4.8 | 0.00 | 0.00 | 0.00 | 74 | 1014.6 |
| 20260905200013 | 28 | 16 | 1.6 | 4.8 | 0.00 | 0.00 | 0.00 | 73 | 1014.7 |
| 20260905195731 | 28 | 355 | 1.6 | 4.8 | 0.00 | 0.00 | 0.00 | 74 | 1014.7 |
| 20260905195001 | 28 | 21 | 1.6 | 6.4 | 0.00 | 0.00 | 0.00 | 74 | 1014.7 |
| 20260905194503 | 28 | 37 | 1.6 | 6.4 | 0.00 | 0.00 | 0.00 | 74 | 1014.8 |
| 20260905193954 | 28 | 49 | 1.6 | 4.8 | 0.00 | 0.00 | 0.00 | 77 | 1014.8 |
| 20260905193456 | 27 | 144 | 3.2 | 8.0 | 0.00 | 0.00 | 0.00 | 78 | 1014.8 |
| 20260905193427 | 27 | 28 | 3.2 | 12.9 | 0.00 | 0.00 | 0.00 | 77 | 1014.8 |
| 20260905192443 | 26 | 32 | 3.2 | 12.9 | 0.00 | 0.00 | 0.00 | 79 | 1014.9 |
| 20260905192156 | 26 | 166 | 3.2 | 9.7 | 0.00 | 0.00 | 0.00 | 80 | 1014.9 |